Location: Br�znic
(45.9167°N, 22.6500°E)
Time: 07:31:54
(UTC+00:00)

Meteor 1-14 Rocket - Pass Details

Date: 03 March 2021
Orbit: 834 x 918 km, 81.3° (Epoch: 10 April)

Event Time Altitude Azimuth Distance (km) Brightness Sun altitude
Rises 17:38:05 0° 189° (S) 3,398 7.4 -14.6°
Reaches altitude 10° 17:40:30 10° 189° (S) 2,458 6.7 -15.0°
Maximum altitude 17:46:04 89° 268° (W) 844 4.2 -15.9°
Drops below altitude 10° 17:51:38 10° 11° (N) 2,456 6.6 -16.9°
Sets 17:54:03 0° 11° (NNE) 3,395 7.3 -17.3°
